[[{"header":{"parameterUnit":"m.s-1","parameterCategory":1,"la1":30.2991,"la2":30.254,"lo1":-89.0895,"lo2":-89.0444,"dy":0.0017,"dx":0.0017,"nx":28,"ny":28,"refTime":"2023-07-27T09:00:00:Z","depth":0,"parameterNumber":2,"parameterNumberName":"U-component_of_WINDS"},"data":[0,0,0,0,0,0,0,0,0,0,0,0,0,0,0,0,0,0,0,0,0,0,0,0,0,0,0,0,0,0,0,0,0,0,0,0,0,0,0,0,0,0,0,0,0,0,0,0,0,0,0,0,0,0,0,0,0,0,-0.674,-0.6738,0,-0.6642,-0.6641,-0.664,-0.6575,-0.6575,-0.6574,-0.6574,-0.6479,-0.6477,-0.6475,0,0,0,0,0,0,0,0,0,0,0,0,0,-0.6876,-0.6874,-0.674,-0.6738,-0.6737,-0.6642,-0.6641,-0.664,-0.6575,-0.6575,-0.6574,-0.6574,-0.648,-0.6478,-0.6475,0,0,0,0,0,0,0,0,0,0,0,0,0,-0.6802,-0.6873,-0.674,-0.6693,-0.6688,-0.6643,-0.6641,-0.6639,-0.6575,-0.6575,-0.6574,-0.6573,-0.6481,-0.6478,-0.6475,-0.6469,0,0,-0.6465,-0.6464,0,0,0,0,0,0,0,0,-0.6806,-0.6797,-0.6701,-0.6697,-0.6691,-0.662,-0.6654,-0.6582,-0.6575,-0.6618,-0.6574,-0.6573,-0.6527,-0.652,-0.6503,-0.6465,-0.6461,-0.6465,-0.6463,-0.6462,-0.6461,0,0,0,0,0,0,0,-0.6811,-0.6801,-0.6701,-0.67,-0.6694,-0.668,-0.6668,-0.6641,-0.6578,-0.6615,-0.661,-0.6599,-0.6524,-0.6507,-0.6501,-0.6459,-0.6465,-0.6462,-0.646,-0.6459,-0.6413,-0.6413,0,0,0,0,0,0,-0.6823,-0.6806,-0.6704,-0.6698,-0.6748,-0.6678,-0.6665,-0.6643,-0.6578,-0.6567,-0.6599,-0.6596,-0.6512,-0.6505,-0.6497,-0.6487,-0.6462,-0.6459,-0.6457,-0.6412,-0.6413,-0.6414,0,0,0,0,0,0,-0.6826,-0.6815,-0.6708,-0.675,-0.6736,-0.6676,-0.6652,-0.6642,-0.6624,-0.6566,-0.6556,-0.6593,-0.6512,-0.6502,-0.6477,-0.6482,-0.6457,-0.6455,-0.6411,-0.6412,-0.6413,-0.6465,0,0,0,0,0,0,-0.683,-0.6816,-0.6812,-0.6751,-0.6734,-0.6687,-0.6653,-0.664,-0.6618,-0.6613,-0.6557,-0.6547,-0.651,-0.6482,-0.6473,-0.6478,-0.6452,-0.641,-0.6412,-0.6413,-0.6463,-0.6468,-0.6473,0,0,0,0,0,-0.6836,-0.6831,-0.6812,-0.68,-0.6727,-0.6688,-0.6678,-0.6634,-0.6619,-0.6615,-0.6578,-0.6549,-0.6483,-0.648,-0.647,-0.6473,-0.641,-0.6411,-0.6413,-0.6461,-0.6467,-0.6472,0,0,0,0,0,0,-0.6896,-0.6822,-0.68,-0.6775,-0.6738,-0.6677,-0.667,-0.6642,-0.6609,-0.6606,-0.6554,-0.6542,-0.6523,-0.6496,-0.6493,-0.6465,-0.6443,-0.6443,-0.6483,-0.6489,-0.6493,-0.65,-0.6449,0,0,0,0,0,-0.6906,-0.6879,-0.6817,-0.6801,-0.6783,-0.673,-0.6712,-0.6681,-0.6641,-0.6625,-0.6586,-0.6551,-0.6522,-0.6504,-0.6474,-0.6459,-0.6447,-0.6457,-0.6462,-0.6466,-0.6466,-0.6458,-0.6462,-0.6418,-0.6418,-0.6418,0,0,-0.6927,-0.6884,-0.687,-0.6812,-0.678,-0.6754,-0.6718,-0.6692,-0.6673,-0.6622,-0.6595,-0.6566,-0.6523,-0.6503,-0.6492,-0.648,-0.6476,-0.6468,-0.6472,-0.647,-0.646,-0.6464,-0.6467,-0.6419,-0.6419,-0.6419,0,0,-0.6953,-0.6917,-0.69,-0.6868,-0.6819,-0.6784,-0.678,-0.6723,-0.6701,-0.6673,-0.6635,-0.6613,-0.6564,-0.6535,-0.6514,-0.6531,-0.6503,-0.6523,-0.6548,-0.654,-0.6543,-0.6546,-0.6553,-0.6555,-0.6523,-0.6524,-0.6524,0,-0.6986,-0.6943,-0.6895,-0.6872,-0.6849,-0.68,-0.6784,-0.6756,-0.6701,-0.6687,-0.6673,-0.6612,-0.6579,-0.6552,-0.6556,-0.6541,-0.6536,-0.6528,-0.6546,-0.6549,-0.6551,-0.6556,-0.6559,-0.6526,-0.6526,-0.6526,-0.6525,0,-0.6987,-0.6959,-0.6952,-0.6898,-0.6874,-0.6854,-0.6805,-0.6787,-0.676,-0.6727,-0.67,-0.666,-0.6621,-0.6613,-0.6586,-0.6583,-0.6577,-0.6556,-0.6532,-0.6558,-0.6563,-0.6564,-0.653,-0.6529,-0.6528,-0.6528,0,0,-0.7046,-0.6966,-0.6964,-0.694,-0.6883,-0.6861,-0.6841,-0.6802,-0.6788,-0.6752,-0.6735,-0.6696,-0.6676,-0.6652,-0.6622,-0.6615,-0.6632,-0.6595,-0.6593,-0.6603,-0.6627,-0.6643,-0.6646,-0.6614,-0.6614,-0.6614,-0.6631,0,-0.7062,-0.702,-0.6977,-0.6952,-0.6926,-0.6881,-0.6864,-0.6828,-0.6798,-0.6774,-0.6741,-0.6714,-0.669,-0.6675,-0.6666,-0.6632,-0.6636,-0.663,-0.6598,-0.6598,-0.661,-0.6648,-0.6664,-0.6682,-0.6632,-0.6632,-0.6633,0,-0.7075,-0.704,-0.7012,-0.6958,-0.6946,-0.6931,-0.6892,-0.6869,-0.6829,-0.6808,-0.6782,-0.675,-0.6728,-0.6709,-0.668,-0.6676,-0.6662,-0.6643,-0.6643,-0.6638,-0.6616,-0.6644,-0.6686,-0.6689,-0.6635,-0.6635,-0.6634,0,-0.7121,-0.7067,-0.7043,-0.7024,-0.6961,-0.6951,-0.6925,-0.6884,-0.6864,-0.6832,-0.6818,-0.6785,-0.6766,-0.6742,-0.6703,-0.6692,-0.6678,-0.6655,-0.6661,-0.6662,-0.6659,-0.666,-0.67,-0.6651,-0.665,-0.665,-0.665,0,-0.7144,-0.7128,-0.7063,-0.7048,-0.703,-0.6983,-0.6967,-0.6937,-0.6902,-0.6882,-0.6842,-0.6825,-0.6774,-0.6751,-0.6721,-0.6702,-0.6694,-0.6677,-0.6669,-0.668,-0.6683,-0.6669,-0.6667,-0.6651,-0.6651,-0.6651,-0.6651,0,-0.7191,-0.7147,-0.7118,-0.7061,-0.7046,-0.7036,-0.6988,-0.6973,-0.6941,-0.6917,-0.6909,-0.6859,-0.6831,-0.6789,-0.6749,-0.6728,-0.6714,-0.6701,-0.6727,-0.6722,-0.673,-0.673,-0.6763,-0.6765,-0.6715,-0.6716,-0.6716,0,-0.7208,-0.7195,-0.7136,-0.7119,-0.7094,-0.7068,-0.7047,-0.7001,-0.6981,-0.6935,-0.6927,-0.6895,-0.6867,-0.6825,-0.6786,-0.6755,-0.6741,-0.6755,-0.6737,-0.6749,-0.6742,-0.6743,-0.6742,-0.6759,-0.676,-0.6761,-0.6761,0,-0.7243,-0.7222,-0.7192,-0.7155,-0.7131,-0.71,-0.7068,-0.7057,-0.7005,-0.6985,-0.6955,-0.6933,-0.6892,-0.6861,-0.6826,-0.6801,-0.6773,-0.6768,-0.6767,-0.6778,-0.6794,-0.6786,-0.6739,-0.6767,-0.6766,-0.6766,-0.6765,-0.6765,-0.7275,-0.7261,-0.7218,-0.7187,-0.7158,-0.7129,-0.7113,-0.7079,-0.7052,-0.7013,-0.6989,-0.696,-0.6923,-0.6872,-0.6849,-0.6827,-0.6815,-0.6815,-0.6815,-0.6815,-0.682,-0.6798,-0.6821,-0.6821,-0.682,-0.682,-0.682,0,-0.7308,-0.7278,-0.725,-0.7205,-0.7182,-0.7156,-0.712,-0.7102,-0.7077,-0.7044,-0.7017,-0.6983,-0.6954,-0.6914,-0.6883,-0.6873,-0.686,-0.6867,-0.6867,-0.6862,-0.6832,-0.6835,-0.6878,-0.6878,-0.6878,-0.6878,-0.6878,-0.6878,-0.7322,-0.7298,-0.7272,-0.7234,-0.7205,-0.7176,-0.7157,-0.7131,-0.7104,-0.7068,-0.7043,-0.7017,-0.6981,-0.6947,-0.692,-0.6909,-0.69,-0.6911,-0.6896,-0.6869,-0.6864,-0.6859,-0.6861,-0.6909,-0.6909,-0.6927,-0.6928,-0.6928]},{"header":{"parameterUnit":"m.s-1","parameterCategory":1,"la1":30.2991,"la2":30.254,"lo1":-89.0895,"lo2":-89.0444,"dy":0.0017,"dx":0.0017,"nx":28,"ny":28,"refTime":"2023-07-27T09:00:00:Z","depth":0,"parameterNumber":3,"parameterNumberName":"V-component_of_WINDS"},"data":[0,0,0,0,0,0,0,0,0,0,0,0,0,0,0,0,0,0,0,0,0,0,0,0,0,0,0,0,0,0,0,0,0,0,0,0,0,0,0,0,0,0,0,0,0,0,0,0,0,0,0,0,0,0,0,0,0,0,1.7379,1.7379,0,1.7421,1.7421,1.7421,1.7503,1.7504,1.7506,1.7507,1.7547,1.7547,1.7546,0,0,0,0,0,0,0,0,0,0,0,0,0,1.7367,1.7367,1.7379,1.7379,1.738,1.742,1.7421,1.7422,1.7502,1.7504,1.7506,1.7508,1.7547,1.7547,1.7546,0,0,0,0,0,0,0,0,0,0,0,0,0,1.7386,1.7367,1.7379,1.7425,1.743,1.742,1.7421,1.7422,1.7502,1.7504,1.7507,1.7509,1.7547,1.7547,1.7546,1.7494,0,0,1.7544,1.7544,0,0,0,0,0,0,0,0,1.7385,1.7387,1.7418,1.7422,1.7427,1.7459,1.7431,1.7446,1.7501,1.7474,1.7507,1.751,1.7516,1.7518,1.752,1.7496,1.7498,1.7544,1.7544,1.7543,1.7543,0,0,0,0,0,0,0,1.7384,1.7385,1.7395,1.7418,1.7424,1.7443,1.7448,1.7435,1.7481,1.7477,1.7483,1.7487,1.7519,1.752,1.7522,1.7498,1.7544,1.7543,1.7543,1.7543,1.7432,1.743,0,0,0,0,0,0,1.7376,1.7384,1.7394,1.7397,1.7412,1.7441,1.7447,1.7446,1.7481,1.7489,1.7485,1.749,1.752,1.7522,1.7523,1.7464,1.7543,1.7543,1.7542,1.7435,1.7432,1.7429,0,0,0,0,0,0,1.7375,1.7376,1.7392,1.7392,1.7395,1.7439,1.7437,1.7446,1.7448,1.7487,1.7496,1.7478,1.7522,1.7524,1.7501,1.7466,1.7542,1.7542,1.7438,1.7434,1.743,1.7345,0,0,0,0,0,0,1.7375,1.7376,1.7357,1.7391,1.7395,1.7369,1.7435,1.7445,1.7447,1.7455,1.7484,1.7491,1.7524,1.7501,1.75,1.7467,1.7541,1.7441,1.7436,1.7432,1.7351,1.7339,1.7328,0,0,0,0,0,1.7374,1.7331,1.7355,1.7356,1.7373,1.7367,1.737,1.741,1.7444,1.7425,1.745,1.749,1.7471,1.7498,1.7497,1.7464,1.7443,1.7438,1.7432,1.7356,1.7341,1.7328,0,0,0,0,0,0,1.729,1.7336,1.7364,1.733,1.7344,1.7381,1.7358,1.7393,1.7397,1.7404,1.7454,1.746,1.7429,1.7445,1.7474,1.7415,1.7463,1.7457,1.7406,1.7392,1.7381,1.7377,1.7541,0,0,0,0,0,1.7268,1.7261,1.7301,1.7267,1.7273,1.7314,1.7313,1.7344,1.736,1.7366,1.739,1.7403,1.74,1.7397,1.7397,1.7354,1.7361,1.733,1.7319,1.7309,1.7303,1.7281,1.7267,1.741,1.741,1.7411,0,0,1.7222,1.7246,1.7238,1.7251,1.7266,1.7256,1.7319,1.7306,1.7299,1.7364,1.7343,1.7361,1.7379,1.7345,1.7332,1.7357,1.7265,1.7302,1.7294,1.7293,1.7273,1.726,1.7248,1.7406,1.7407,1.7408,0,0,1.7132,1.715,1.7124,1.7137,1.7159,1.7187,1.718,1.7212,1.7226,1.7206,1.7254,1.7246,1.7241,1.7252,1.7256,1.7171,1.7207,1.7169,1.7109,1.7086,1.7075,1.7065,1.7034,1.7022,1.7163,1.7163,1.7163,0,1.7071,1.706,1.7106,1.709,1.7094,1.7153,1.7126,1.7137,1.7156,1.7157,1.7185,1.7179,1.7196,1.7165,1.7144,1.7146,1.714,1.7165,1.7073,1.7064,1.7055,1.7026,1.7014,1.7158,1.7159,1.7159,1.716,0,1.6984,1.6975,1.6951,1.6969,1.697,1.6949,1.6991,1.6986,1.7016,1.7041,1.7019,1.7041,1.7046,1.7041,1.707,1.7014,1.7029,1.7065,1.7114,1.7036,1.7009,1.6998,1.7151,1.7153,1.7154,1.7155,0,0,1.6842,1.6886,1.6876,1.6885,1.6913,1.6907,1.6888,1.6893,1.6888,1.6899,1.6884,1.6878,1.6911,1.6916,1.6947,1.6927,1.6856,1.6965,1.6966,1.6943,1.6795,1.6767,1.6753,1.6881,1.6879,1.6878,1.6793,0,1.6757,1.6728,1.6769,1.673,1.6722,1.6778,1.6761,1.6776,1.6798,1.6794,1.6818,1.6813,1.6857,1.6861,1.6844,1.6868,1.6827,1.6875,1.6866,1.6865,1.6858,1.6739,1.6709,1.6628,1.6783,1.6781,1.678,0,1.6655,1.6662,1.6623,1.6653,1.6651,1.6635,1.6643,1.6639,1.6656,1.6674,1.6679,1.6717,1.6699,1.6748,1.6724,1.6755,1.6754,1.6765,1.6763,1.6763,1.6816,1.6734,1.6603,1.659,1.6763,1.6765,1.6766,0,1.6554,1.6554,1.653,1.6536,1.6571,1.6558,1.6572,1.6592,1.6593,1.66,1.66,1.6604,1.6606,1.6608,1.6645,1.6677,1.6615,1.6668,1.6628,1.6627,1.6612,1.6612,1.6478,1.6613,1.6613,1.6613,1.6613,0,1.6455,1.6428,1.6485,1.647,1.6442,1.6488,1.6458,1.6478,1.6495,1.6484,1.6533,1.6522,1.6572,1.6565,1.6594,1.6569,1.6569,1.6582,1.659,1.6577,1.6575,1.6576,1.6582,1.661,1.6611,1.6611,1.6612,0,1.6337,1.6374,1.6351,1.6387,1.6395,1.6372,1.6401,1.6389,1.6414,1.64,1.6399,1.6439,1.6434,1.6471,1.6473,1.6492,1.6452,1.6471,1.6446,1.6452,1.6409,1.6412,1.627,1.6253,1.64,1.6398,1.6397,0,1.627,1.6251,1.6284,1.6281,1.6292,1.6286,1.6287,1.6332,1.6331,1.6349,1.6334,1.6333,1.6335,1.6324,1.6352,1.6353,1.6371,1.6321,1.6372,1.6359,1.6369,1.6369,1.6367,1.631,1.6308,1.6307,1.6306,0,1.6148,1.6168,1.6168,1.6173,1.6173,1.618,1.619,1.6184,1.6233,1.6229,1.6225,1.6226,1.6228,1.6226,1.6233,1.6246,1.6283,1.629,1.628,1.6266,1.6252,1.6258,1.6416,1.6292,1.6294,1.6295,1.6295,1.6296,1.6053,1.6038,1.6059,1.6057,1.607,1.6078,1.6067,1.6092,1.6089,1.6095,1.6122,1.6112,1.613,1.6143,1.6153,1.6145,1.6169,1.6156,1.6152,1.6148,1.614,1.6255,1.6147,1.6147,1.6148,1.6148,1.6148,0,1.5933,1.5949,1.5947,1.5959,1.5957,1.5994,1.6006,1.6002,1.5993,1.6007,1.6008,1.6002,1.6001,1.6029,1.6031,1.6019,1.6036,1.6018,1.6018,1.602,1.6119,1.6126,1.6004,1.6004,1.6004,1.6004,1.6004,1.6004,1.587,1.5846,1.5868,1.5851,1.5867,1.5859,1.5863,1.587,1.5881,1.5873,1.5872,1.5891,1.591,1.5914,1.5913,1.5922,1.5919,1.5895,1.5909,1.6,1.6014,1.6027,1.6034,1.5894,1.5894,1.5811,1.581,1.5809]}]]